Home   Weather   Trieste   Past weeks

Flag for Italy Past Weather in Trieste, Italy — Yesterday and Last 2 Weeks

Now
60 °F

Overcast.


Feels Like: 60 °F
Forecast: 57 / 60 °F
Wind: 3 mph from East

Location: Trieste

Current Time: Apr 26, 2017 at 9:42:12 pm

Latest Report: Apr 26, 2017 at 8:00 pm


Visibility: 6 mi

Pressure: 29.80 "Hg

Humidity: 75%

Dew Point: 52 °F

Location of TriesteLocation

Past Weather in Trieste — Graph

°F

Trieste Temperature Yesterday

Maximum temperature yesterday: 62 °F (at 12:00 pm)
Minimum temperature yesterday: 55 °F (at 3:00 am)
Average temperature yesterday: 59 °F

High & Low Weather Summary for the Past Weeks

 TemperatureHumidityPressure
High71 °F (Apr 14, 11:00 am)94% (Apr 15, 7:00 pm)30.40 "Hg (Apr 15, 7:00 pm)
Low41 °F (Apr 20, 7:00 am)21% (Apr 19, 5:00 pm)29.80 "Hg (Apr 26, 8:00 pm)
Average55 °F59%30.02 "Hg
* Reported Apr 11 8:00 pm — Apr 26 8:00 pm, Trieste, Weather by CustomWeather, © 2017

Note: Actual official high and low records may vary slightly from our data, if they occured in-between our weather recording intervals... More about our weather records

Advertising

Trieste Weather History for the Previous 24 Hours

Scroll right to see more
 ConditionsComfort  
Time TempWeatherWind HumidityBarometerVisibility
8:00 pm
Wed, Apr 26
60 °FOvercast.3 mph75%29.80 "Hg6 mi
7:00 pm59 °FOvercast.3 mph77%29.83 "Hg6 mi
6:00 pm58 °FOvercast.1 mph83%29.83 "Hg2 mi
5:00 pm57 °FLight rain. Overcast.2 mph90%29.83 "Hg2 mi
4:00 pm59 °FLight rain. Overcast.2 mph80%29.83 "Hg2 mi
3:00 pm60 °FLight rain. Overcast.3 mph72%29.83 "Hg2 mi
2:00 pm63 °FFog.10 mph62%29.83 "Hg2 mi
1:00 pm62 °FFog.10 mph65%29.83 "Hg2 mi
12:00 pm63 °FOvercast.6 mph63%29.83 "Hg6 mi
11:00 am63 °FOvercast.6 mph64%29.83 "Hg6 mi
10:00 am63 °FOvercast.7 mph65%29.84 "Hg12 mi
9:00 am61 °FPartly sunny.2 mph70%29.84 "Hg12 mi
8:00 am59 °FOvercast.2 mph78%29.84 "Hg12 mi
7:00 am58 °FOvercast.1 mph79%29.84 "Hg12 mi
6:00 am58 °FOvercast.1 mph79%29.84 "Hg12 mi
5:00 am58 °FPassing clouds.No wind78%29.86 "Hg12 mi
4:00 am57 °FPassing clouds.1 mph80%29.86 "Hg12 mi
2:00 am59 °FPassing clouds.3 mph75%29.86 "Hg12 mi
1:00 am59 °FPassing clouds.5 mph73%29.86 "Hg12 mi
12:00 am59 °FPassing clouds.6 mph71%29.87 "Hg12 mi
11:00 pm
Tue, Apr 25
58 °FPassing clouds.5 mph72%29.87 "Hg12 mi
10:00 pm59 °FOvercast.6 mph69%29.88 "Hg12 mi
9:00 pm60 °FOvercast.5 mph69%29.88 "Hg12 mi
Weather by CustomWeather, © 2017

See weather overviewHow to use our weather pages